Date,TemperatureHighF,TemperatureAvgF,TemperatureLowF,DewpointHighF,DewpointAvgF,DewpointLowF,HumidityHigh,HumidityAvg,HumidityLow,PressureMaxIn,PressureMinIn,WindSpeedMaxMPH,WindSpeedAvgMPH,GustSpeedMaxMPH,PrecipitationSumIn
2013-1-1,56,47,39,34,26,16,75,47,27,30.26,30.12,5,1,10,0.00
2013-1-2,64,52,45,32,21,14,41,30,18,30.16,30.05,4,1,9,0.00
2013-1-3,67,54,46,25,16,9,33,22,12,30.19,30.07,6,1,10,0.00
2013-1-4,63,52,45,22,14,7,34,23,15,30.29,30.18,3,1,6,0.00
2013-1-5,62,52,44,34,20,13,63,30,19,30.31,30.18,7,1,7,0.00
2013-1-6,55,47,40,46,41,34,97,82,57,30.20,30.04,4,0,9,0.03
2013-1-7,66,53,43,37,28,19,76,43,19,30.12,30.00,11,2,17,0.00
2013-1-8,72,59,51,41,30,18,49,34,24,30.12,30.03,10,1,11,0.00
2013-1-9,65,58,47,47,39,31,95,53,33,30.12,29.99,8,2,12,0.00
2013-1-10,53,47,38,47,33,22,95,62,32,30.10,29.93,9,2,19,0.00
2013-1-11,51,43,36,27,23,19,64,47,33,30.21,30.09,13,2,13,0.00
2013-1-12,51,42,35,25,22,17,65,47,27,30.18,30.10,4,0,8,0.00
2013-1-13,52,42,35,26,20,14,60,43,23,30.20,30.07,7,1,8,0.00
2013-1-14,52,41,32,12,4,-4,37,22,10,30.37,30.17,6,1,15,0.00
2013-1-15,57,46,36,33,16,4,63,32,19,30.48,30.35,8,1,10,0.00
2013-1-16,64,54,46,32,24,17,40,31,22,30.38,30.15,5,1,8,0.00
2013-1-17,75,61,52,30,18,12,29,19,10,30.19,30.07,3,1,7,0.00
2013-1-18,73,61,52,24,16,12,24,18,12,30.16,30.07,3,1,9,0.00
2013-1-19,74,61,54,22,14,9,24,16,9,30.20,30.09,3,1,7,0.00
2013-1-20,76,63,53,21,13,7,21,14,9,30.15,30.02,6,1,7,0.00
2013-1-21,78,65,55,20,11,1,18,12,7,30.10,30.01,5,1,7,0.00
2013-1-22,76,64,56,21,9,1,19,12,7,30.11,30.02,4,1,7,0.00
2013-1-23,75,63,52,48,27,12,83,29,14,30.13,30.01,8,2,12,0.03
2013-1-24,60,55,49,54,52,46,96,89,78,30.20,30.08,13,4,18,0.52
2013-1-25,58,55,54,56,53,50,97,92,79,30.16,29.97,2,0,4,0.40
2013-1-26,64,56,51,58,54,50,98,92,77,29.99,29.89,8,2,10,0.14
2013-1-27,55,50,45,52,45,28,98,84,51,30.05,29.95,10,2,13,0.10
2013-1-28,56,48,42,32,28,25,58,47,31,30.20,30.04,8,2,17,0.00
2013-1-29,56,48,42,38,33,29,76,57,40,30.24,30.16,7,1,11,0.00
2013-1-30,66,53,42,43,38,31,82,57,36,30.36,30.23,5,1,10,0.00
2013-1-31,76,61,48,42,36,33,65,42,23,30.26,30.10,4,1,7,0.00
2013-2-1,72,63,56,44,38,32,50,39,27,30.17,30.10,6,1,11,0.00
2013-2-2,74,64,59,47,38,33,65,39,26,30.20,30.11,2,0,6,0.00
2013-2-3,74,63,55,46,42,35,65,47,27,30.14,29.99,10,1,11,0.00
2013-2-4,71,58,46,52,44,33,94,61,37,30.08,29.96,5,1,11,0.00
2013-2-5,56,49,46,50,48,45,98,95,81,30.09,30.00,4,1,7,0.00
2013-2-6,58,51,45,50,47,44,98,87,71,30.12,30.01,6,1,10,0.01
2013-2-7,58,49,42,50,45,42,97,86,71,30.15,29.99,8,1,10,0.01
2013-2-8,52,44,38,43,38,34,96,81,54,29.99,29.87,5,0,8,0.09
2013-2-9,53,45,37,41,35,31,89,70,49,30.12,29.95,7,1,10,0.01
2013-2-10,54,45,37,42,39,35,91,80,60,30.12,30.03,5,1,8,0.00
2013-2-11,60,48,38,38,30,16,94,55,19,30.25,30.08,10,1,14,0.00
2013-2-12,62,50,40,39,26,15,67,41,19,30.36,30.24,6,1,9,0.00
2013-2-13,66,54,43,36,31,23,52,43,27,30.27,30.14,8,1,9,0.00
2013-2-14,73,59,44,41,33,29,69,40,25,30.21,30.07,7,1,10,0.00
2013-2-15,77,65,56,35,26,19,36,23,14,30.19,30.13,8,2,10,0.00
2013-2-16,77,66,58,30,18,12,22,16,10,30.17,29.96,6,1,10,0.00
2013-2-17,65,56,49,48,36,17,92,53,19,30.02,29.90,11,3,13,0.00
2013-2-18,58,51,46,46,45,43,90,81,62,30.06,29.94,6,2,9,0.00
2013-2-19,52,47,40,45,41,38,94,82,66,29.99,29.72,6,2,11,0.14
2013-2-20,57,46,34,36,30,24,92,58,32,30.01,29.71,9,2,16,0.00
2013-2-21,58,48,40,41,35,28,85,62,38,30.12,29.98,11,1,13,0.00
2013-2-22,62,51,41,41,32,29,71,50,32,30.21,30.11,8,1,9,0.00
2013-2-23,60,52,42,46,35,30,81,55,41,30.17,29.92,10,2,18,0.00
2013-2-24,65,53,44,32,17,5,52,26,11,30.21,30.01,8,2,20,0.00
2013-2-25,65,54,44,40,20,7,75,29,16,30.23,30.07,6,1,11,0.00
2013-2-26,72,56,43,37,27,14,78,35,14,30.13,29.99,6,1,11,0.00
2013-2-27,72,60,49,24,14,9,28,17,10,30.28,30.13,7,1,15,0.00
2013-2-28,75,63,53,30,16,9,28,17,10,30.32,30.23,9,1,11,0.00
2013-3-1,82,69,55,31,22,17,28,18,12,30.31,30.15,5,1,10,0.00
2013-3-2,82,69,61,33,26,21,26,20,13,30.21,30.06,6,1,9,0.00
2013-3-3,65,58,49,49,41,25,96,57,25,30.09,29.95,11,2,14,0.00
2013-3-4,64,54,49,52,49,46,96,83,62,30.10,30.00,9,2,10,0.00
2013-3-5,60,51,48,51,48,45,96,87,71,30.12,30.02,6,1,11,0.00
2013-3-6,59,51,44,47,44,42,94,78,56,30.16,30.01,8,1,12,0.00
2013-3-7,58,50,47,49,45,38,96,82,55,30.01,29.84,5,1,9,0.14
2013-3-8,55,47,40,46,43,39,97,88,68,30.04,29.80,6,1,14,0.69
2013-3-9,63,51,41,45,40,32,95,67,39,30.22,30.04,10,1,13,0.00
2013-3-10,72,58,46,47,37,25,86,48,17,30.27,30.15,10,1,13,0.00
2013-3-11,74,61,51,44,33,24,59,36,21,30.18,30.04,9,1,10,0.00
2013-3-12,80,66,52,48,37,30,61,37,20,30.08,30.00,5,1,10,0.00
2013-3-13,88,72,59,43,34,28,42,26,13,30.11,30.00,4,1,8,0.00
2013-3-14,88,72,56,52,40,29,70,33,17,30.07,29.98,7,1,8,0.00
2013-3-15,77,63,55,54,48,38,79,60,43,30.01,29.91,8,2,13,0.00
2013-3-16,66,54,47,54,50,46,97,85,62,29.95,29.87,8,2,12,0.00
2013-3-17,65,54,47,52,48,37,97,80,39,29.99,29.93,9,3,16,0.01
2013-3-18,64,54,49,53,50,47,95,84,64,30.07,29.98,8,1,10,0.00
2013-3-19,65,53,48,55,50,47,97,89,68,30.13,30.04,12,2,12,0.00
2013-3-20,72,60,51,56,50,42,93,72,34,30.11,29.95,8,1,10,0.01
2013-3-21,67,60,53,53,47,32,89,65,35,29.95,29.79,13,4,15,0.00
2013-3-22,72,60,49,53,38,13,94,50,15,29.90,29.79,13,2,17,0.00
2013-3-23,70,58,47,52,46,17,97,66,19,30.00,29.90,10,2,14,0.00
2013-3-24,73,60,49,53,47,31,97,66,31,30.02,29.88,9,2,14,0.00
2013-3-25,73,62,52,52,46,35,86,59,32,29.97,29.88,7,2,12,0.00
2013-3-26,68,56,49,54,50,47,95,80,53,29.95,29.89,11,2,15,0.00
2013-3-27,65,54,48,52,49,47,96,84,57,30.04,29.93,10,2,12,0.00
2013-3-28,71,58,50,54,51,48,97,79,52,30.08,30.00,8,2,13,0.00
2013-3-29,76,59,51,56,52,49,97,79,47,30.10,30.01,6,2,12,0.00
2013-3-30,70,57,50,57,50,43,97,78,45,30.12,30.04,10,2,15,0.00
2013-3-31,66,56,50,56,52,47,94,84,69,30.13,30.05,6,2,12,0.00
2013-4-1,66,54,47,54,48,45,93,80,58,30.16,30.07,8,1,12,0.00
2013-4-2,68,57,49,54,50,47,96,79,58,30.10,29.98,9,2,12,0.00
2013-4-3,75,61,51,55,52,48,96,75,39,30.08,29.98,8,2,10,0.01
2013-4-4,73,59,51,56,53,50,97,81,55,30.10,29.99,9,2,11,0.00
2013-4-5,67,58,52,57,53,51,96,84,67,30.07,29.98,12,3,15,0.00
2013-4-6,68,58,51,55,52,42,97,80,52,30.07,29.95,13,3,17,0.01
2013-4-7,74,62,54,56,51,43,90,69,34,29.95,29.79,17,4,19,0.00
2013-4-8,65,58,51,52,41,32,93,57,32,29.84,29.66,10,2,20,0.00
2013-4-9,76,61,49,34,29,18,50,31,12,30.01,29.84,5,1,14,0.00
2013-4-10,85,70,55,35,24,14,40,20,8,30.09,29.95,6,1,12,0.00
2013-4-11,74,61,52,50,43,34,91,55,25,29.98,29.76,11,3,17,0.00
2013-4-12,70,57,50,53,51,49,96,81,55,29.89,29.77,11,2,12,0.00
2013-4-13,60,54,50,54,51,50,97,91,78,29.91,29.84,6,1,12,0.00
2013-4-14,62,54,50,53,49,48,95,84,68,29.88,29.82,7,2,11,0.00
2013-4-15,64,55,49,52,49,43,93,79,63,29.89,29.82,12,2,14,0.00
2013-4-16,67,55,44,45,34,23,93,50,26,30.01,29.86,10,2,17,0.00
2013-4-17,72,60,49,28,23,17,37,25,13,30.14,30.01,10,2,12,0.00
2013-4-18,78,63,52,29,20,11,31,20,8,30.20,30.10,8,1,13,0.00
2013-4-19,83,70,56,30,21,15,26,16,9,30.16,29.96,7,1,10,0.00
2013-4-20,86,73,58,49,38,27,60,29,14,29.97,29.85,11,1,12,0.00
2013-4-21,80,66,53,53,47,40,96,55,25,29.98,29.90,10,3,13,0.00
2013-4-22,71,58,52,54,51,47,97,80,45,29.99,29.87,9,3,14,0.00
2013-4-23,70,59,52,52,50,48,95,76,50,29.96,29.85,7,2,12,0.00
2013-4-24,58,55,53,55,52,49,95,89,82,29.99,29.89,7,1,10,0.00
2013-4-25,68,60,53,50,47,44,87,66,44,30.11,29.96,9,1,11,0.00
2013-4-26,73,61,51,52,48,43,78,64,44,30.14,30.08,9,2,12,0.00
2013-4-27,74,65,54,57,53,49,94,67,48,30.14,29.97,9,2,13,0.00
2013-4-28,77,62,52,57,54,51,96,78,50,30.00,29.83,8,2,13,0.00
2013-4-29,72,60,53,58,54,52,98,84,60,29.89,29.77,11,3,15,0.00
2013-4-30,64,57,53,54,52,50,96,85,69,29.89,29.82,11,2,13,0.00
2013-5-1,74,61,54,55,53,52,95,77,48,30.09,29.89,7,3,11,0.00
2013-5-2,89,73,53,53,30,-1,96,37,4,30.13,30.00,9,2,11,0.01
2013-5-3,92,78,66,40,13,-2,39,9,3,30.02,29.76,7,1,11,0.00
2013-5-4,71,62,54,56,52,37,93,70,33,29.82,29.71,11,3,14,0.00
2013-5-5,62,57,53,51,50,48,91,78,61,29.94,29.81,17,4,22,0.00
2013-5-6,66,57,53,57,52,46,98,85,53,30.01,29.88,15,2,16,0.47
2013-5-7,69,58,52,55,51,44,96,79,56,30.07,29.99,5,1,8,0.07
2013-5-8,70,60,53,55,48,42,85,66,51,30.09,30.05,6,1,11,0.00
2013-5-9,71,60,52,56,51,45,93,74,55,30.09,30.00,7,2,11,0.00
2013-5-10,77,64,54,59,55,50,93,75,48,30.08,29.99,9,2,12,0.00
2013-5-11,92,74,56,63,55,44,92,57,19,30.07,29.96,7,1,9,0.00
2013-5-12,99,83,63,63,52,42,82,41,15,30.03,29.88,6,1,9,0.00
2013-5-13,99,86,72,54,45,27,45,26,12,29.94,29.84,9,1,10,0.00
2013-5-14,76,67,55,57,49,27,89,56,17,29.97,29.85,10,3,17,0.00
2013-5-15,71,60,54,56,53,49,93,78,56,30.03,29.93,6,2,13,0.00
2013-5-16,71,60,54,56,54,52,94,81,60,29.98,29.88,8,2,11,0.00
2013-5-17,72,61,54,57,54,52,94,78,58,29.98,29.90,8,2,13,0.00
2013-5-18,73,61,53,56,54,52,97,78,53,30.03,29.95,8,2,10,0.00
2013-5-19,74,63,53,58,54,47,92,74,58,29.98,29.86,12,3,17,0.00
2013-5-20,83,68,55,60,57,53,93,69,42,29.94,29.86,7,2,11,0.00
2013-5-21,78,64,56,61,58,55,97,82,53,29.93,29.80,9,3,14,0.00
2013-5-22,71,62,55,57,54,47,96,77,59,29.84,29.76,8,2,12,0.00
2013-5-23,70,62,54,55,50,43,88,67,52,29.92,29.81,6,1,11,0.00
2013-5-24,70,60,52,55,51,43,91,71,51,29.98,29.90,10,2,11,0.00
2013-5-25,69,59,52,54,52,47,94,77,58,30.02,29.96,7,1,12,0.00
2013-5-26,70,60,52,56,53,50,96,78,57,30.04,29.98,8,2,14,0.00
2013-5-27,74,62,53,58,55,52,96,80,54,29.99,29.84,11,2,14,0.00
2013-5-28,83,68,56,58,53,44,95,63,32,29.88,29.73,9,2,12,0.00
2013-5-29,91,74,58,59,52,42,91,52,21,29.78,29.66,9,2,15,0.00
2013-5-30,78,67,58,60,58,54,96,74,54,29.86,29.73,10,2,12,0.00
2013-5-31,77,66,57,60,58,55,94,76,54,29.89,29.79,7,2,10,0.00
2013-6-1,88,68,58,65,60,56,96,77,43,29.84,29.71,11,2,16,0.00
2013-6-2,72,64,58,62,59,56,96,84,66,29.81,29.75,10,2,14,0.00
2013-6-3,72,62,57,59,56,54,93,81,60,29.88,29.79,8,2,11,0.00
2013-6-4,71,62,55,58,56,54,96,82,63,29.96,29.87,5,1,9,0.00
2013-6-5,70,60,55,59,56,54,97,86,66,30.00,29.89,8,2,11,0.00
2013-6-6,69,60,54,60,56,52,97,89,71,29.95,29.86,8,2,12,0.00
2013-6-7,71,59,55,61,57,54,98,92,69,29.91,29.77,7,1,11,0.01
2013-6-8,72,62,56,61,58,55,98,87,64,29.90,29.79,8,2,12,0.00
2013-6-9,73,62,56,61,57,54,96,86,64,29.92,29.86,8,2,14,0.00
2013-6-10,74,63,56,57,55,53,95,77,50,29.95,29.88,9,1,11,0.00
2013-6-11,85,68,56,61,57,54,95,72,38,29.93,29.86,9,2,12,0.00
2013-6-12,73,61,56,61,58,55,97,88,65,30.01,29.91,11,2,15,0.00
2013-6-13,74,62,56,60,57,55,98,84,60,30.01,29.88,9,2,12,0.00
2013-6-14,74,62,55,60,57,54,97,83,58,29.92,29.83,9,2,12,0.00
2013-6-15,73,62,55,59,55,48,97,79,56,29.96,29.88,8,2,10,0.00
2013-6-16,76,63,54,59,56,52,97,80,54,30.03,29.93,9,2,13,0.00
2013-6-17,78,65,57,59,57,52,92,75,47,29.96,29.87,8,2,14,0.00
2013-6-18,77,66,57,61,57,52,91,74,55,29.90,29.80,11,2,13,0.00
2013-6-19,75,67,56,58,53,29,87,63,21,29.85,29.77,11,2,16,0.00
2013-6-20,80,70,63,59,50,42,62,50,37,29.84,29.78,8,2,12,0.00
2013-6-21,77,68,58,59,53,43,85,59,41,29.88,29.82,9,2,13,0.00
2013-6-22,77,66,57,60,57,52,95,75,51,29.89,29.79,10,2,13,0.00
2013-6-23,72,63,57,59,57,55,96,81,62,29.87,29.77,10,2,11,0.00
2013-6-24,71,64,57,60,57,55,94,80,64,29.93,29.82,5,1,9,0.00
2013-6-25,71,64,57,62,59,56,97,84,71,30.00,29.89,9,2,13,0.00
2013-6-26,86,74,61,64,61,57,90,66,47,29.96,29.89,10,2,13,0.00
2013-6-27,91,78,64,65,61,59,86,59,38,30.00,29.93,12,2,12,0.00
2013-6-28,90,79,66,65,61,58,79,56,36,29.96,29.83,11,2,13,0.00
2013-6-29,96,82,69,65,62,59,74,52,33,29.86,29.71,10,2,13,0.00
2013-6-30,97,80,70,67,62,57,76,56,34,29.79,29.68,13,2,17,0.00
2013-7-1,92,78,66,65,60,54,78,57,29,29.86,29.77,6,2,11,0.00
2013-7-2,88,74,66,66,62,58,84,67,44,29.96,29.85,11,2,15,0.00
2013-7-3,87,72,64,65,60,53,86,68,34,29.90,29.78,12,2,19,0.00
2013-7-4,84,70,60,63,60,58,95,74,43,29.81,29.72,10,2,12,0.00
2013-7-5,80,67,59,65,60,56,97,79,46,29.82,29.75,8,2,12,0.00
2013-7-6,81,65,60,64,61,59,97,87,53,29.82,29.72,7,2,14,0.00
2013-7-7,81,69,60,66,62,58,97,79,55,29.84,29.75,6,1,11,0.00
2013-7-8,92,75,61,65,58,43,92,60,22,29.89,29.83,7,1,10,0.00
2013-7-9,90,78,66,62,58,47,80,51,35,29.95,29.87,10,2,17,0.00
2013-7-10,81,71,64,64,60,55,87,70,49,29.95,29.89,5,1,12,0.00
2013-7-11,74,69,64,65,63,62,93,83,71,29.95,29.88,4,1,10,0.02
2013-7-12,83,71,62,67,61,52,96,73,49,29.92,29.83,5,1,10,0.00
2013-7-13,83,70,58,64,60,54,95,73,43,29.93,29.83,7,2,12,0.00
2013-7-14,87,72,61,63,58,53,89,66,39,29.91,29.80,8,2,12,0.00
2013-7-15,84,72,62,61,57,47,83,61,38,29.85,29.77,6,1,12,0.00
2013-7-16,85,71,58,56,50,42,81,51,23,29.95,29.83,7,1,11,0.00
2013-7-17,87,74,60,55,49,42,76,45,22,30.00,29.93,6,1,15,0.00
2013-7-18,83,71,60,62,55,50,81,59,41,29.95,29.83,8,1,12,0.00
2013-7-19,83,70,60,61,58,54,87,68,42,29.88,29.79,10,2,13,0.00
2013-7-20,80,66,59,64,60,57,96,83,58,29.87,29.76,12,1,14,0.00
2013-7-21,74,67,62,64,62,60,93,83,70,29.92,29.78,8,1,11,0.00
2013-7-22,82,71,62,66,61,56,96,74,51,29.96,29.88,6,2,10,0.01
2013-7-23,80,70,62,61,58,54,90,69,44,30.00,29.90,9,2,15,0.00
2013-7-24,81,67,59,64,59,57,94,78,53,29.96,29.86,11,2,14,0.00
2013-7-25,81,68,59,62,59,57,94,76,51,29.99,29.90,6,2,13,0.00
2013-7-26,82,70,60,66,61,58,92,74,53,30.08,29.95,7,1,10,0.00
2013-7-27,80,69,58,63,59,56,93,74,51,29.99,29.84,8,2,12,0.00
2013-7-28,75,62,57,62,58,55,97,87,62,29.91,29.85,9,2,12,0.00
2013-7-29,76,65,57,60,57,54,96,77,52,30.01,29.91,6,2,9,0.00
2013-7-30,77,63,55,60,56,53,97,80,50,30.11,30.01,7,2,11,0.00
2013-7-31,74,60,54,59,56,53,97,85,60,30.10,29.97,7,2,12,0.00
2013-8-1,76,62,54,59,56,52,97,82,57,30.02,29.89,9,2,11,0.01
2013-8-2,78,64,56,61,57,53,96,80,53,29.96,29.88,6,2,12,0.00
2013-8-3,79,64,57,62,58,55,97,83,54,29.98,29.90,7,2,13,0.00
2013-8-4,78,64,55,61,58,54,97,82,54,30.01,29.91,6,1,11,0.01
2013-8-5,84,64,55,63,56,45,96,78,26,29.99,29.90,6,1,12,0.01
2013-8-6,76,64,56,59,56,52,96,75,49,30.02,29.95,10,2,14,0.00
2013-8-7,76,64,55,59,56,52,97,78,50,30.06,29.95,7,2,14,0.00
2013-8-8,77,66,56,59,56,53,93,72,47,29.98,29.88,9,2,12,0.00
2013-8-9,75,64,56,59,56,54,96,78,55,29.95,29.89,7,2,12,0.00
2013-8-10,75,63,55,59,57,53,97,82,56,30.02,29.93,10,2,16,0.00
2013-8-11,80,66,56,60,56,51,97,75,39,29.98,29.87,12,2,13,0.00
2013-8-12,80,65,56,61,58,55,97,80,50,29.96,29.87,9,2,15,0.00
2013-8-13,83,67,57,63,59,56,97,78,48,29.96,29.85,8,1,11,0.01
2013-8-14,91,68,56,64,60,56,98,78,35,29.91,29.80,6,1,11,0.00
2013-8-15,89,71,59,64,59,53,97,70,32,29.92,29.85,9,2,11,0.00
2013-8-16,88,74,64,62,58,39,81,60,33,29.93,29.87,9,2,13,0.00
2013-8-17,89,75,64,60,56,51,77,56,30,29.92,29.77,7,1,13,0.00
2013-8-18,86,71,61,62,58,54,85,65,34,29.88,29.77,10,2,16,0.00
2013-8-19,79,68,60,63,60,54,95,77,54,29.92,29.82,10,2,16,0.00
2013-8-20,83,71,59,63,59,56,95,69,42,29.91,29.81,13,2,15,0.00
2013-8-21,91,75,62,62,55,44,85,53,24,29.89,29.80,8,2,10,0.00
2013-8-22,93,79,63,55,49,41,73,39,17,29.89,29.77,8,2,13,0.00
2013-8-23,90,75,63,56,52,43,77,46,22,29.84,29.70,7,2,11,0.00
2013-8-24,91,74,62,55,50,37,73,45,17,29.85,29.73,11,2,12,0.00
2013-8-25,91,75,61,60,48,24,68,40,14,29.90,29.81,7,2,9,0.00
2013-8-26,91,81,70,63,51,39,41,35,25,29.90,29.79,7,1,11,0.00
2013-8-27,90,80,72,62,55,46,55,43,34,29.81,29.73,7,1,10,0.00
2013-8-28,93,82,71,60,53,34,59,38,20,29.86,29.75,9,1,9,0.00
2013-8-29,100,85,73,60,52,39,44,32,20,29.90,29.83,7,1,12,0.00
2013-8-30,95,85,78,68,62,51,68,47,36,29.94,29.87,12,2,14,0.00
2013-8-31,92,82,75,69,68,65,81,63,47,29.93,29.84,6,1,9,0.00
2013-9-1,91,79,69,70,67,64,86,68,47,29.90,29.80,7,1,12,0.00
2013-9-2,90,78,68,69,66,61,89,67,44,29.89,29.77,9,2,13,0.00
2013-9-3,96,82,71,67,62,58,80,53,28,29.88,29.78,6,1,10,0.00
2013-9-4,99,85,73,65,59,52,68,43,24,29.88,29.79,6,1,9,0.00
2013-9-5,98,86,73,62,54,40,58,35,20,29.85,29.77,9,1,11,0.00
2013-9-6,100,86,74,56,51,44,45,30,20,29.84,29.73,7,1,10,0.00
2013-9-7,98,83,72,58,52,44,53,35,21,29.84,29.74,13,1,13,0.00
2013-9-8,88,76,68,59,54,45,67,48,30,29.81,29.71,8,2,15,0.00
2013-9-9,80,68,58,61,56,50,95,67,44,29.78,29.71,11,2,17,0.00
2013-9-10,77,64,57,60,57,55,97,80,52,29.93,29.78,8,2,13,0.00
2013-9-11,76,65,57,60,58,55,95,79,56,29.98,29.90,8,2,15,0.00
2013-9-12,86,72,59,62,57,51,92,64,36,29.92,29.80,8,1,11,0.00
2013-9-13,84,74,62,59,55,49,80,54,36,29.81,29.64,10,2,11,0.00
2013-9-14,90,78,66,61,55,49,67,47,28,29.69,29.60,7,2,14,0.00
2013-9-15,92,78,64,61,57,54,77,51,31,29.74,29.66,7,1,11,0.00
2013-9-16,96,79,66,61,53,35,71,44,18,29.79,29.69,4,1,10,0.00
2013-9-17,77,67,59,61,58,55,93,72,53,29.78,29.69,12,2,14,0.00
2013-9-18,75,64,58,59,57,55,96,79,56,29.80,29.73,9,2,13,0.00
2013-9-19,79,65,58,62,58,55,95,80,56,29.82,29.73,7,2,16,0.00
2013-9-20,69,63,60,61,59,57,95,88,73,29.88,29.80,4,1,8,0.00
2013-9-21,74,64,57,59,57,53,93,78,57,29.91,29.78,8,1,10,0.00
2013-9-22,78,64,56,55,49,41,94,61,29,29.84,29.77,10,2,17,0.00
2013-9-23,90,75,59,49,41,31,69,34,14,29.87,29.81,5,1,9,0.00
2013-9-24,85,72,61,55,48,42,74,45,23,29.91,29.80,8,1,13,0.00
2013-9-25,73,63,57,59,56,51,94,78,61,29.82,29.67,7,2,13,0.00
2013-9-26,76,65,56,52,39,23,82,45,14,29.88,29.71,6,1,22,0.00
2013-9-27,82,68,56,45,33,27,42,29,14,29.98,29.88,11,1,12,0.00
2013-9-28,86,73,61,35,28,24,28,19,12,30.02,29.95,7,1,10,0.00
2013-9-29,86,72,58,46,34,25,40,26,13,30.05,29.94,6,1,11,0.00
2013-9-30,86,70,59,57,46,35,80,47,21,29.96,29.82,7,2,12,0.00
2013-10-1,78,67,58,58,53,48,91,63,36,29.91,29.85,7,2,10,0.00
2013-10-2,74,63,58,58,57,55,95,81,54,29.96,29.86,6,1,9,0.00
2013-10-3,72,62,57,58,56,54,95,82,55,29.92,29.81,7,1,9,0.00
2013-10-4,84,69,56,62,36,8,97,47,6,30.04,29.87,11,1,14,0.00
2013-10-5,89,74,62,31,22,17,25,15,8,30.11,30.02,5,1,8,0.00
2013-10-6,90,75,64,29,19,12,19,12,6,30.08,29.94,4,1,8,0.00
2013-10-7,83,70,58,52,32,19,76,28,12,29.95,29.86,6,1,9,0.00
2013-10-8,69,60,53,57,54,51,96,82,60,29.90,29.80,8,2,13,0.00
2013-10-9,59,55,48,55,49,44,93,81,63,29.82,29.69,7,1,11,0.08
2013-10-10,66,55,46,49,46,44,95,76,48,30.02,29.80,5,0,9,0.00
2013-10-11,71,60,50,52,49,46,91,69,46,30.04,29.94,7,1,9,0.00
2013-10-12,74,61,51,56,51,47,94,71,44,29.97,29.87,8,1,10,0.00
2013-10-13,67,59,54,54,52,50,95,80,55,30.02,29.92,6,1,9,0.00
2013-10-14,81,66,52,51,41,28,95,48,17,30.02,29.91,4,0,8,0.00
2013-10-15,83,71,61,37,31,28,31,24,14,29.96,29.86,5,1,9,0.00
2013-10-16,84,70,60,32,27,24,30,21,12,30.06,29.96,4,0,8,0.00
2013-10-17,81,69,59,36,29,23,31,23,16,30.02,29.90,7,1,8,0.00
2013-10-18,83,70,56,47,38,30,50,33,20,30.00,29.91,6,1,7,0.00
2013-10-19,85,73,62,48,30,24,34,22,11,30.01,29.92,6,1,9,0.00
2013-10-20,76,65,57,56,45,28,83,51,22,29.95,29.86,8,2,12,0.00
2013-10-21,75,63,52,56,49,28,95,63,24,29.97,29.89,7,1,10,0.00
2013-10-22,77,62,54,56,51,42,95,68,35,29.98,29.87,6,1,9,0.00
2013-10-23,67,57,52,55,53,51,97,87,66,29.97,29.88,5,1,9,0.00
2013-10-24,68,59,53,55,53,51,93,81,60,30.04,29.95,7,1,9,0.00
2013-10-25,75,60,51,57,54,50,97,81,52,30.12,30.00,3,0,5,0.01
2013-10-26,83,69,56,57,52,44,93,59,26,30.08,29.95,4,0,7,0.00
2013-10-27,72,62,54,57,51,35,95,69,36,29.96,29.78,10,2,16,0.00
2013-10-28,65,55,50,52,48,44,94,78,56,29.93,29.79,8,1,12,0.00
2013-10-29,63,54,47,50,47,44,93,79,60,30.01,29.92,9,0,9,0.00
2013-10-30,66,56,46,48,44,40,94,67,43,30.07,29.98,7,1,9,0.00
2013-10-31,77,63,52,41,37,30,63,40,18,30.10,29.98,4,0,7,0.00
2013-11-1,82,70,58,35,30,26,34,23,14,30.11,29.94,6,0,8,0.00
2013-11-2,80,67,57,55,35,27,93,35,17,29.99,29.85,7,1,12,0.00
2013-11-3,66,58,54,55,52,51,92,80,58,29.91,29.81,9,2,11,0.00
2013-11-4,65,57,52,53,50,40,91,76,45,29.94,29.79,8,1,9,0.00
2013-11-5,73,61,51,48,24,10,61,28,11,30.15,29.95,6,1,12,0.00
2013-11-6,79,65,54,24,18,11,23,16,10,30.21,30.12,3,1,6,0.00
2013-11-7,82,70,61,32,21,13,24,16,9,30.13,29.99,3,0,5,0.00
2013-11-8,76,66,58,52,31,19,79,30,16,30.01,29.91,6,1,9,0.00
2013-11-9,74,62,52,51,38,25,82,44,19,30.07,29.98,4,1,8,0.00
2013-11-10,78,63,54,48,37,17,70,42,10,30.12,30.02,6,1,9,0.00
2013-11-11,79,66,54,42,36,28,54,34,17,30.11,30.02,3,0,6,0.00
2013-11-12,82,70,57,42,33,26,56,27,17,30.16,30.05,2,0,3,0.00
2013-11-13,89,75,66,33,26,21,22,17,9,30.06,29.89,5,1,9,0.00
2013-11-14,87,74,60,52,30,25,73,22,11,29.92,29.73,6,1,9,0.00
2013-11-15,66,58,54,55,53,51,93,83,66,29.75,29.65,9,1,11,0.00
2013-11-16,61,55,52,55,50,48,94,84,69,29.93,29.74,7,1,10,0.00
2013-11-17,64,56,49,51,50,47,93,80,61,30.09,29.94,3,0,8,0.01
2013-11-18,64,55,49,53,50,48,95,83,66,30.15,30.04,6,1,8,0.00
2013-11-19,62,55,50,52,50,48,93,82,65,30.09,29.95,4,0,9,0.00
2013-11-20,61,56,52,55,52,50,96,89,77,29.97,29.87,7,1,9,0.05
2013-11-21,59,55,49,57,53,46,98,95,86,29.88,29.81,7,1,14,0.28
2013-11-22,58,52,48,46,40,37,88,64,50,29.97,29.85,7,1,13,0.00
2013-11-23,62,52,47,42,39,37,76,62,41,30.10,29.96,2,0,7,0.00
2013-11-24,63,54,47,44,41,39,78,62,45,30.20,30.09,4,0,8,0.00
2013-11-25,69,56,49,44,40,37,66,54,32,30.25,30.15,9,1,10,0.00
2013-11-26,72,62,54,41,38,34,56,41,25,30.20,30.05,5,0,5,0.00
2013-11-27,70,61,55,41,36,33,51,41,27,30.05,29.87,9,1,13,0.00
2013-11-28,65,58,52,47,40,33,67,51,37,30.06,29.88,7,2,14,0.00
2013-11-29,58,55,51,53,48,43,93,79,58,30.19,30.05,6,0,9,0.16
2013-11-30,73,61,53,46,41,36,69,49,31,30.20,30.08,2,0,5,0.00
2013-12-1,77,64,55,38,33,28,47,33,18,30.22,30.10,4,0,12,0.00
2013-12-2,72,62,53,39,33,27,55,34,24,30.13,29.90,4,0,5,0.00
2013-12-3,60,54,45,52,44,33,90,72,41,29.89,29.73,8,1,12,0.00
2013-12-4,58,48,40,41,25,16,88,42,20,29.97,29.77,8,1,18,0.00
2013-12-5,55,46,40,34,28,22,63,50,32,30.12,29.96,4,0,6,0.00
2013-12-6,55,46,38,39,34,21,81,64,44,30.19,30.10,5,1,10,0.00
2013-12-7,53,44,37,49,36,24,95,75,53,30.12,29.99,6,1,12,0.09
2013-12-8,52,43,36,35,27,18,68,54,42,30.23,30.11,4,0,11,0.00
2013-12-9,58,45,37,20,8,-3,46,25,11,30.32,30.21,6,1,13,0.00
2013-12-10,60,48,39,11,7,-1,24,18,13,30.30,30.13,4,0,10,0.00
2013-12-11,66,54,45,20,13,7,25,20,13,30.20,30.12,3,0,8,0.00
2013-12-12,66,55,48,45,27,15,72,38,16,30.22,30.12,6,0,9,0.00
2013-12-13,61,52,42,45,38,28,88,61,42,30.23,30.13,3,1,6,0.00
2013-12-14,71,59,51,33,24,17,38,26,14,30.30,30.20,3,1,9,0.00
2013-12-15,77,63,53,29,23,19,32,22,13,30.25,30.11,4,0,7,0.00
2013-12-16,81,69,60,32,25,21,26,19,13,30.14,30.06,3,0,5,0.00
2013-12-17,82,71,63,33,27,22,29,20,13,30.11,30.00,4,0,7,0.00
2013-12-18,69,60,52,52,42,25,92,58,20,29.99,29.82,9,1,15,0.00
2013-12-19,52,48,44,50,45,40,95,90,80,29.83,29.70,8,1,11,0.45
2013-12-20,61,51,45,45,38,31,88,64,35,29.95,29.78,7,1,15,0.00
2013-12-21,56,49,42,47,43,37,93,81,65,30.10,29.93,4,0,7,0.00
2013-12-22,66,54,44,49,45,38,96,75,46,30.27,30.10,4,0,5,0.01
2013-12-23,72,60,50,45,36,32,82,42,27,30.33,30.20,5,1,10,0.00
2013-12-24,74,63,54,40,34,29,45,34,24,30.20,30.09,3,0,4,0.00
2013-12-25,76,64,58,33,22,10,34,21,10,30.20,30.12,5,1,13,0.00
2013-12-26,76,64,56,22,14,8,21,15,9,30.17,30.07,4,1,10,0.00
2013-12-27,80,66,57,22,14,5,17,13,8,30.16,30.03,2,0,6,0.00
2013-12-28,71,62,53,44,26,13,61,29,14,30.02,29.90,5,1,8,0.00
2013-12-29,74,61,50,38,15,5,63,18,7,30.15,29.99,6,1,12,0.00
2013-12-30,70,60,54,24,13,2,26,16,11,30.25,30.14,4,1,7,0.00
2013-12-31,68,58,51,31,20,14,38,23,15,30.20,30.07,7,1,8,0.00
2014-1-1,73,61,48,38,26,18,50,28,16,30.13,30.04,6,1,8,0.00
2014-1-2,77,66,58,30,26,22,28,22,15,30.11,29.98,3,0,5,0.00